Time,TemperatureF,DewpointF,PressureIn,WindDirection,WindDirectionDegrees,WindSpeedMPH,WindSpeedGustMPH,Humidity,HourlyPrecipIn,Conditions,Clouds,dailyrainin,SolarRadiationWatts/m^2,SoftwareType,DateUTC
2013-10-13 00:02:00,-999.0,-99.9,-100.00,West,262,6.0,11.0,-999,-99.99,,,-99.99,0.000000,,2013-10-13 04:02:00,
2013-10-13 00:03:00,53.0,42.0,-100.00,WSW,242,6.0,14.0,66,0.00,,,0.17,0.000000,,2013-10-13 04:03:00,
2013-10-13 00:43:00,53.0,42.0,-100.00,WSW,242,6.0,14.0,66,0.00,,,0.17,0.000000,,2013-10-13 04:43:00,
2013-10-13 00:54:00,53.0,42.0,-100.00,WSW,242,6.0,14.0,66,0.00,,,0.17,0.000000,,2013-10-13 04:54:00,
2013-10-13 01:43:00,53.0,42.0,-100.00,WSW,240,6.0,14.0,66,0.00,,,0.17,0.000000,,2013-10-13 05:43:00,
2013-10-13 01:52:00,53.0,42.0,-100.00,WSW,240,6.0,14.0,66,0.00,,,0.17,0.000000,,2013-10-13 05:52:00,
2013-10-13 02:02:00,53.0,42.0,-100.00,WSW,240,6.0,14.0,66,0.00,,,0.17,0.000000,,2013-10-13 06:02:00,
2013-10-13 02:22:00,51.0,42.0,-100.00,WSW,243,7.0,14.0,71,0.00,,,0.17,0.000000,,2013-10-13 06:22:00,
2013-10-13 02:32:00,51.0,42.0,-100.00,WSW,243,7.0,14.0,71,0.00,,,0.17,0.000000,,2013-10-13 06:32:00,
2013-10-13 02:42:00,51.0,42.0,-100.00,WSW,243,7.0,14.0,71,0.00,,,0.17,0.000000,,2013-10-13 06:42:00,
2013-10-13 02:52:00,51.0,42.0,-100.00,WSW,243,7.0,14.0,71,0.00,,,0.17,0.000000,,2013-10-13 06:52:00,
2013-10-13 03:02:00,51.0,42.0,-100.00,WSW,243,7.0,14.0,71,0.00,,,0.17,0.000000,,2013-10-13 07:02:00,
2013-10-13 03:42:00,50.0,41.0,-100.00,West,261,7.0,14.0,72,0.00,,,0.17,0.000000,,2013-10-13 07:42:00,
2013-10-13 03:52:00,50.0,41.0,-100.00,West,261,7.0,14.0,72,0.00,,,0.17,0.000000,,2013-10-13 07:52:00,
2013-10-13 04:02:00,50.0,41.0,-100.00,West,261,7.0,14.0,72,0.00,,,0.17,0.000000,,2013-10-13 08:02:00,
2013-10-13 04:22:00,47.0,40.0,-100.00,West,280,5.0,14.0,77,0.00,,,0.17,0.000000,,2013-10-13 08:22:00,
2013-10-13 04:32:00,47.0,40.0,-100.00,West,280,5.0,14.0,77,0.00,,,0.17,0.000000,,2013-10-13 08:32:00,
2013-10-13 04:42:00,47.0,40.0,-100.00,West,280,5.0,14.0,77,0.00,,,0.17,0.000000,,2013-10-13 08:42:00,
2013-10-13 04:52:00,47.0,40.0,-100.00,West,280,5.0,14.0,77,0.00,,,0.17,0.000000,,2013-10-13 08:52:00,
2013-10-13 05:02:00,47.0,40.0,-100.00,West,280,5.0,14.0,77,0.00,,,0.17,0.000000,,2013-10-13 09:02:00,
2013-10-13 05:03:00,46.0,40.0,-100.00,West,279,4.0,9.0,79,0.00,,,0.17,0.000000,,2013-10-13 09:03:00,
2013-10-13 05:43:00,46.0,40.0,-100.00,West,279,4.0,9.0,79,0.00,,,0.17,0.000000,,2013-10-13 09:43:00,
2013-10-13 05:53:00,46.0,40.0,-100.00,West,279,4.0,9.0,79,0.00,,,0.17,0.000000,,2013-10-13 09:53:00,
2013-10-13 06:03:00,46.0,41.0,-100.00,West,268,4.0,9.0,83,0.00,,,0.17,0.000000,,2013-10-13 10:03:00,
2013-10-13 06:43:00,46.0,41.0,-100.00,West,268,4.0,9.0,83,0.00,,,0.17,0.000000,,2013-10-13 10:43:00,
2013-10-13 06:53:00,46.0,41.0,-100.00,West,268,4.0,9.0,83,0.00,,,0.17,0.000000,,2013-10-13 10:53:00,
2013-10-13 07:22:00,44.0,40.0,-100.00,WNW,286,3.0,6.0,86,0.00,,,0.17,0.000000,,2013-10-13 11:22:00,
2013-10-13 07:33:00,44.0,40.0,-100.00,WNW,286,3.0,6.0,86,0.00,,,0.17,0.000000,,2013-10-13 11:33:00,
2013-10-13 07:42:00,44.0,40.0,-100.00,WNW,286,3.0,6.0,86,0.00,,,0.17,0.000000,,2013-10-13 11:42:00,
2013-10-13 07:52:00,44.0,40.0,-100.00,WNW,286,3.0,6.0,86,0.00,,,0.17,0.000000,,2013-10-13 11:52:00,
2013-10-13 08:01:00,44.0,40.0,-100.00,WNW,286,3.0,6.0,86,0.00,,,0.17,0.000000,,2013-10-13 12:01:00,
2013-10-13 08:42:00,45.0,42.0,-100.00,West,264,7.0,10.0,88,0.00,,,0.17,1.000000,,2013-10-13 12:42:00,
2013-10-13 08:52:00,45.0,42.0,-100.00,West,264,7.0,10.0,88,0.00,,,0.17,1.000000,,2013-10-13 12:52:00,
2013-10-13 09:02:00,45.0,42.0,-100.00,West,264,7.0,10.0,88,0.00,,,0.17,1.000000,,2013-10-13 13:02:00,
2013-10-13 09:52:00,49.0,44.0,-100.00,West,274,7.0,11.0,82,0.00,,,0.17,86.000000,,2013-10-13 13:52:00,
2013-10-13 10:02:00,49.0,44.0,-100.00,West,274,7.0,11.0,82,0.00,,,0.17,86.000000,,2013-10-13 14:02:00,
2013-10-13 10:42:00,51.0,45.0,-100.00,WNW,282,4.0,10.0,79,0.00,,,0.17,150.000000,,2013-10-13 14:42:00,
2013-10-13 10:52:00,51.0,45.0,-100.00,WNW,282,4.0,10.0,79,0.00,,,0.17,150.000000,,2013-10-13 14:52:00,
2013-10-13 11:01:00,51.0,45.0,-100.00,WNW,282,4.0,10.0,79,0.00,,,0.17,150.000000,,2013-10-13 15:01:00,
2013-10-13 11:03:00,53.0,45.0,-100.00,WNW,299,6.0,10.0,75,0.00,,,0.17,194.000000,,2013-10-13 15:03:00,
2013-10-13 11:43:00,53.0,45.0,-100.00,WNW,299,6.0,10.0,75,0.00,,,0.17,194.000000,,2013-10-13 15:43:00,
2013-10-13 11:54:00,53.0,45.0,-100.00,WNW,299,6.0,10.0,75,0.00,,,0.17,194.000000,,2013-10-13 15:54:00,
2013-10-13 12:03:00,54.0,44.0,-100.00,NW,316,7.0,11.0,70,0.00,,,0.17,201.000000,,2013-10-13 16:03:00,
2013-10-13 12:43:00,54.0,44.0,-100.00,NW,316,7.0,11.0,70,0.00,,,0.17,201.000000,,2013-10-13 16:43:00,
2013-10-13 12:54:00,54.0,44.0,-100.00,NW,316,7.0,11.0,70,0.00,,,0.17,201.000000,,2013-10-13 16:54:00,
2013-10-13 13:43:00,55.0,44.0,-100.00,NW,315,5.0,11.0,66,0.00,,,0.17,269.000000,,2013-10-13 17:43:00,
2013-10-13 13:52:00,55.0,44.0,-100.00,NW,315,5.0,11.0,66,0.00,,,0.17,269.000000,,2013-10-13 17:52:00,
2013-10-13 14:02:00,55.0,44.0,-100.00,NW,315,5.0,11.0,66,0.00,,,0.17,269.000000,,2013-10-13 18:02:00,
2013-10-13 14:42:00,54.0,43.0,-100.00,NNW,339,4.0,11.0,65,0.00,,,0.17,145.000000,,2013-10-13 18:42:00,
2013-10-13 14:52:00,54.0,43.0,-100.00,NNW,339,4.0,11.0,65,0.00,,,0.17,145.000000,,2013-10-13 18:52:00,
2013-10-13 15:02:00,54.0,43.0,-100.00,NNW,339,4.0,11.0,65,0.00,,,0.17,145.000000,,2013-10-13 19:02:00,
2013-10-13 15:22:00,54.0,42.0,-100.00,NNW,342,3.0,11.0,64,0.00,,,0.03,168.000000,,2013-10-13 19:22:00,
2013-10-13 15:32:00,54.0,42.0,-100.00,NNW,342,3.0,11.0,64,0.00,,,0.03,168.000000,,2013-10-13 19:32:00,
2013-10-13 15:42:00,54.0,42.0,-100.00,NNW,342,3.0,11.0,64,0.00,,,0.03,168.000000,,2013-10-13 19:42:00,
2013-10-13 15:53:00,54.0,42.0,-100.00,NNW,342,3.0,11.0,64,0.00,,,0.03,168.000000,,2013-10-13 19:53:00,
2013-10-13 16:02:00,54.0,42.0,-100.00,NNW,342,3.0,11.0,64,0.00,,,0.03,168.000000,,2013-10-13 20:02:00,
2013-10-13 16:43:00,54.0,42.0,-100.00,NNE,25,4.0,7.0,63,0.00,,,0.02,166.000000,,2013-10-13 20:43:00,
2013-10-13 16:52:00,54.0,42.0,-100.00,NNE,25,4.0,7.0,63,0.00,,,0.02,166.000000,,2013-10-13 20:52:00,
2013-10-13 17:02:00,54.0,42.0,-100.00,NNE,25,4.0,7.0,63,0.00,,,0.02,166.000000,,2013-10-13 21:02:00,
2013-10-13 17:03:00,57.0,41.0,-100.00,NNW,338,2.0,7.0,55,0.00,,,0.02,253.000000,,2013-10-13 21:03:00,
2013-10-13 17:44:00,57.0,41.0,-100.00,NNW,338,2.0,7.0,55,0.00,,,0.02,253.000000,,2013-10-13 21:44:00,
2013-10-13 17:55:00,57.0,41.0,-100.00,NNW,338,2.0,7.0,55,0.00,,,0.02,253.000000,,2013-10-13 21:55:00,
2013-10-13 18:03:00,54.0,40.0,-100.00,NE,50,3.0,6.0,60,0.00,,,0.00,159.000000,,2013-10-13 22:03:00,
2013-10-13 18:24:00,54.0,40.0,-100.00,NE,50,3.0,6.0,60,0.00,,,0.00,159.000000,,2013-10-13 22:24:00,
2013-10-13 18:32:00,54.0,40.0,-100.00,NE,50,3.0,6.0,60,0.00,,,0.00,159.000000,,2013-10-13 22:32:00,
2013-10-13 18:43:00,54.0,40.0,-100.00,NE,50,3.0,6.0,60,0.00,,,0.00,159.000000,,2013-10-13 22:43:00,
2013-10-13 18:53:00,54.0,40.0,-100.00,NE,50,3.0,6.0,60,0.00,,,0.00,159.000000,,2013-10-13 22:53:00,
2013-10-13 19:42:00,49.0,42.0,-100.00,NE,37,3.0,7.0,77,0.00,,,0.00,36.000000,,2013-10-13 23:42:00,
2013-10-13 19:52:00,49.0,42.0,-100.00,NE,37,3.0,7.0,77,0.00,,,0.00,36.000000,,2013-10-13 23:52:00,
2013-10-13 20:01:00,49.0,42.0,-100.00,NE,37,3.0,7.0,77,0.00,,,0.00,36.000000,,2013-10-14 00:01:00,
2013-10-13 20:22:00,42.0,40.0,-100.00,NE,37,1.0,5.0,93,0.00,,,0.00,1.000000,,2013-10-14 00:22:00,
2013-10-13 20:32:00,42.0,40.0,-100.00,NE,37,1.0,5.0,93,0.00,,,0.00,1.000000,,2013-10-14 00:32:00,
2013-10-13 20:42:00,42.0,40.0,-100.00,NE,37,1.0,5.0,93,0.00,,,0.00,1.000000,,2013-10-14 00:42:00,
2013-10-13 20:52:00,42.0,40.0,-100.00,NE,37,1.0,5.0,93,0.00,,,0.00,1.000000,,2013-10-14 00:52:00,
2013-10-13 21:02:00,42.0,40.0,-100.00,NE,37,1.0,5.0,93,0.00,,,0.00,1.000000,,2013-10-14 01:02:00,
2013-10-13 21:42:00,38.0,37.0,-100.00,NE,45,3.0,4.0,97,0.00,,,0.00,0.000000,,2013-10-14 01:42:00,
2013-10-13 21:52:00,38.0,37.0,-100.00,NE,45,3.0,4.0,97,0.00,,,0.00,0.000000,,2013-10-14 01:52:00,
2013-10-13 22:02:00,38.0,37.0,-100.00,NE,45,3.0,4.0,97,0.00,,,0.00,0.000000,,2013-10-14 02:02:00,
2013-10-13 22:42:00,35.0,34.0,-100.00,NE,40,0.0,2.0,98,0.00,,,0.00,0.000000,,2013-10-14 02:42:00,
2013-10-13 22:52:00,35.0,34.0,-100.00,NE,40,0.0,2.0,98,0.00,,,0.00,0.000000,,2013-10-14 02:52:00,
2013-10-13 23:02:00,35.0,34.0,-100.00,NE,40,0.0,2.0,98,0.00,,,0.00,0.000000,,2013-10-14 03:02:00,
2013-10-13 23:03:00,34.0,34.0,-100.00,NNE,33,1.0,4.0,98,0.00,,,0.00,0.000000,,2013-10-14 03:03:00,
2013-10-13 23:44:00,34.0,34.0,-100.00,NNE,33,1.0,4.0,98,0.00,,,0.00,0.000000,,2013-10-14 03:44:00,
2013-10-13 23:55:00,34.0,34.0,-100.00,NNE,33,1.0,4.0,98,0.00,,,0.00,0.000000,,2013-10-14 03:55:00,